When you browse on this site, cookies collect data to enhance your experience and personalize the content and advertising you see.
Visit our Privacy Policy to learn more. By continuing to use the site, you agree to this use of cookies and data.
  • In Hungary
  • List of Countries
  • For 7 days
  • Water Temperature
  • Satellite Maps
  • Weather Map
  • News
  • Weather Widgets
  • user-avatar
    Login

    Hourly Weather West Bromwich

    Today, 15 December, Saturday

    Time Temperature Precipitation Wind Pressure Humidity
    00:00 -2°C° 0 mm 5 mps 749 mmHg 78%
    01:00 -3°C° 0 mm 6 mps 749 mmHg 77%
    02:00 -3°C° 0 mm 6 mps 748 mmHg 76%
    03:00 -3°C° 0 mm 7 mps 747 mmHg 75%
    04:00 -2°C° 0.1 mm 7 mps 747 mmHg 76%
    05:00 -2°C° 0.1 mm 7 mps 746 mmHg 76%
    06:00 -2°C° 0.1 mm 8 mps 745 mmHg 77%
    07:00 -2°C° 0.2 mm 8 mps 745 mmHg 77%
    08:00 -2°C° 0.2 mm 8 mps 744 mmHg 78%
    09:00 -3°C° 0.2 mm 9 mps 743 mmHg 79%
    10:00 -3°C° 0.3 mm 9 mps 742 mmHg 80%
    11:00 -1°C° 0.3 mm 9 mps 741 mmHg 81%
    12:00 -1°C° 0.3 mm 9 mps 740 mmHg 82%
    13:00 -2°C° 1 mm 10 mps 738 mmHg 84%
    14:00 0°C° 1 mm 10 mps 737 mmHg 86%
    15:00 0°C° 1 mm 10 mps 735 mmHg 88%
    16:00 +1°C° 0.9 mm 10 mps 734 mmHg 89%
    17:00 +2°C° 0.9 mm 10 mps 732 mmHg 91%
    18:00 +3°C° 0.9 mm 10 mps 730 mmHg 92%
    19:00 +3°C° 0.3 mm 10 mps 730 mmHg 90%
    20:00 +5°C° 0.3 mm 10 mps 730 mmHg 88%
    21:00 +6°C° 0.3 mm 10 mps 730 mmHg 86%
    22:00 +5°C° 0.1 mm 9 mps 731 mmHg 83%
    23:00 +3°C° 0.1 mm 9 mps 732 mmHg 81%

    Tomorrow, 16 December, Sunday

    Time Temperature Precipitation Wind Pressure Humidity
    00:00 +4°C° 0.1 mm 8 mps 733 mmHg 79%
    01:00 +3°C° 0 mm 7 mps 734 mmHg 81%
    02:00 +3°C° 0 mm 6 mps 735 mmHg 82%
    03:00 +2°C° 0 mm 5 mps 736 mmHg 84%
    04:00 +2°C° 0 mm 5 mps 737 mmHg 86%
    05:00 +1°C° 0 mm 4 mps 737 mmHg 87%
    06:00 +1°C° 0 mm 4 mps 738 mmHg 89%
    07:00 +2°C° 0 mm 3 mps 738 mmHg 90%
    08:00 +2°C° 0 mm 3 mps 738 mmHg 91%
    09:00 +2°C° 0 mm 3 mps 738 mmHg 92%
    10:00 +3°C° 0 mm 4 mps 738 mmHg 89%
    11:00 +4°C° 0 mm 4 mps 738 mmHg 86%
    12:00 +5°C° 0 mm 4 mps 738 mmHg 82%
    13:00 +5°C° 0.1 mm 4 mps 738 mmHg 84%
    14:00 +5°C° 0.1 mm 4 mps 738 mmHg 87%
    15:00 +5°C° 0.1 mm 3 mps 738 mmHg 89%
    16:00 +5°C° 0.2 mm 3 mps 739 mmHg 90%
    17:00 +4°C° 0.2 mm 3 mps 739 mmHg 91%
    18:00 +4°C° 0.2 mm 3 mps 739 mmHg 93%
    19:00 +3°C° 0 mm 3 mps 740 mmHg 93%
    20:00 +4°C° 0 mm 2 mps 740 mmHg 93%
    21:00 +3°C° 0 mm 2 mps 740 mmHg 93%
    22:00 +3°C° 0 mm 2 mps 741 mmHg 93%
    23:00 +3°C° 0 mm 2 mps 741 mmHg 92%

    Day after tomorrow, 17 December, Monday

    Time Temperature Precipitation Wind Pressure Humidity
    00:00 +3°C° 0 mm 2 mps 742 mmHg 92%
    01:00 +3°C° 0 mm 2 mps 742 mmHg 91%
    02:00 +3°C° 0 mm 2 mps 743 mmHg 91%
    03:00 +1°C° 0 mm 3 mps 743 mmHg 91%
    04:00 +2°C° 0 mm 2 mps 744 mmHg 91%
    05:00 +2°C° 0 mm 2 mps 744 mmHg 91%
    06:00 +2°C° 0 mm 2 mps 744 mmHg 91%
    07:00 +2°C° 0 mm 2 mps 745 mmHg 91%
    08:00 +2°C° 0 mm 2 mps 746 mmHg 91%
    09:00 +2°C° 0 mm 2 mps 746 mmHg 91%
    10:00 +3°C° 0 mm 3 mps 747 mmHg 88%
    11:00 +4°C° 0 mm 3 mps 747 mmHg 85%
    12:00 +5°C° 0 mm 4 mps 748 mmHg 82%
    13:00 +5°C° 0 mm 4 mps 747 mmHg 85%
    14:00 +5°C° 0 mm 4 mps 747 mmHg 87%
    15:00 +5°C° 0 mm 4 mps 747 mmHg 89%
    16:00 +5°C° 0 mm 4 mps 747 mmHg 90%
    17:00 +5°C° 0 mm 4 mps 747 mmHg 91%
    18:00 +3°C° 0 mm 5 mps 747 mmHg 92%
    19:00 +5°C° 0 mm 5 mps 747 mmHg 92%
    20:00 +5°C° 0 mm 5 mps 747 mmHg 92%
    21:00 +4°C° 0 mm 6 mps 747 mmHg 92%
    22:00 +5°C° 0 mm 6 mps 746 mmHg 92%
    23:00 +5°C° 0 mm 6 mps 746 mmHg 92%

    18 December, Tuesday

    Time Temperature Precipitation Wind Pressure Humidity
    00:00 +5°C° 0 mm 7 mps 746 mmHg 91%
    01:00 +6°C° 0 mm 7 mps 745 mmHg 91%
    02:00 +6°C° 0 mm 7 mps 745 mmHg 91%
    03:00 +6°C° 0 mm 7 mps 744 mmHg 91%
    04:00 +6°C° 0.1 mm 7 mps 744 mmHg 90%
    05:00 +8°C° 0.1 mm 7 mps 744 mmHg 89%
    06:00 +8°C° 0.1 mm 7 mps 743 mmHg 88%
    07:00 +7°C° 0 mm 8 mps 742 mmHg 87%
    08:00 +6°C° 0 mm 9 mps 741 mmHg 86%
    09:00 +6°C° 0 mm 9 mps 741 mmHg 85%
    10:00 +6°C° 0.1 mm 9 mps 740 mmHg 82%
    11:00 +6°C° 0.1 mm 10 mps 739 mmHg 79%
    12:00 +6°C° 0.1 mm 10 mps 739 mmHg 76%
    13:00 +6°C° 0.6 mm 10 mps 738 mmHg 78%
    14:00 +6°C° 0.6 mm 10 mps 737 mmHg 79%
    15:00 +5°C° 0.6 mm 10 mps 736 mmHg 81%
    16:00 +5°C° 0.9 mm 9 mps 736 mmHg 83%
    17:00 +5°C° 0.9 mm 9 mps 735 mmHg 85%
    18:00 +5°C° 0.9 mm 8 mps 735 mmHg 87%
    19:00 +5°C° 1 mm 7 mps 735 mmHg 89%
    20:00 +5°C° 1 mm 6 mps 735 mmHg 91%
    21:00 +6°C° 1 mm 4 mps 735 mmHg 92%
    22:00 +6°C° 0.5 mm 4 mps 735 mmHg 91%
    23:00 +6°C° 0.5 mm 4 mps 736 mmHg 90%

    19 December, Wednesday

    Time Temperature Precipitation Wind Pressure Humidity
    00:00 +6°C° 0.5 mm 4 mps 736 mmHg 88%
    01:00 +5°C° 0 mm 4 mps 737 mmHg 89%
    02:00 +5°C° 0 mm 4 mps 737 mmHg 89%
    03:00 +5°C° 0 mm 4 mps 738 mmHg 90%
    04:00 +4°C° 0 mm 4 mps 738 mmHg 90%
    05:00 +4°C° 0 mm 3 mps 739 mmHg 90%
    06:00 +3°C° 0 mm 3 mps 740 mmHg 90%
    07:00 +3°C° 0 mm 3 mps 740 mmHg 90%
    08:00 +3°C° 0 mm 3 mps 741 mmHg 90%
    09:00 +2°C° 0 mm 3 mps 741 mmHg 90%
    10:00 +3°C° 0 mm 3 mps 741 mmHg 86%
    11:00 +5°C° 0 mm 4 mps 741 mmHg 83%
    12:00 +6°C° 0 mm 4 mps 742 mmHg 80%
    13:00 +5°C° 0 mm 4 mps 742 mmHg 81%
    14:00 +5°C° 0 mm 4 mps 741 mmHg 83%
    15:00 +5°C° 0 mm 4 mps 741 mmHg 84%
    16:00 +4°C° 0 mm 4 mps 742 mmHg 86%
    17:00 +4°C° 0 mm 4 mps 742 mmHg 87%
    18:00 +3°C° 0 mm 4 mps 742 mmHg 88%
    19:00 +4°C° 0.1 mm 4 mps 742 mmHg 88%
    20:00 +4°C° 0.1 mm 4 mps 742 mmHg 87%
    21:00 +3°C° 0.1 mm 5 mps 742 mmHg 87%
    22:00 +3°C° 0.1 mm 5 mps 742 mmHg 87%
    23:00 +4°C° 0.1 mm 4 mps 742 mmHg 88%

    20 December, Thursday

    Time Temperature Precipitation Wind Pressure Humidity
    00:00 +4°C° 0.1 mm 4 mps 742 mmHg 88%
    01:00 +4°C° 0.1 mm 4 mps 742 mmHg 88%
    02:00 +4°C° 0.1 mm 4 mps 742 mmHg 89%
    03:00 +3°C° 0.1 mm 4 mps 742 mmHg 89%
    04:00 +3°C° 0.1 mm 4 mps 742 mmHg 89%
    05:00 +3°C° 0.1 mm 4 mps 742 mmHg 90%
    06:00 +3°C° 0.1 mm 3 mps 742 mmHg 90%
    07:00 +3°C° 0 mm 3 mps 742 mmHg 90%
    08:00 +3°C° 0 mm 3 mps 742 mmHg 90%
    09:00 +3°C° 0 mm 3 mps 742 mmHg 91%
    10:00 +3°C° 0 mm 3 mps 743 mmHg 87%
    11:00 +4°C° 0 mm 4 mps 743 mmHg 84%
    12:00 +5°C° 0 mm 4 mps 743 mmHg 80%
    13:00 +5°C° 0 mm 4 mps 744 mmHg 82%
    14:00 +5°C° 0 mm 3 mps 744 mmHg 84%
    15:00 +5°C° 0 mm 3 mps 744 mmHg 85%
    16:00 +4°C° 0 mm 3 mps 744 mmHg 86%
    17:00 +4°C° 0 mm 3 mps 745 mmHg 88%
    18:00 +3°C° 0 mm 3 mps 745 mmHg 89%
    19:00 +3°C° 0 mm 3 mps 745 mmHg 90%
    20:00 +3°C° 0 mm 3 mps 745 mmHg 91%
    21:00 +2°C° 0 mm 3 mps 745 mmHg 92%
    22:00 +3°C° 0 mm 3 mps 745 mmHg 91%
    23:00 +3°C° 0 mm 3 mps 744 mmHg 91%
    Show more